Location: Hains Lake
(37.8540°N, 99.8578°W)
Time: 14:19:35
(UTC+00:00)

Vanguard 1 - Pass Details

Date: 10 December 2021
Orbit: 652 x 3830 km, 34.2° (Epoch: 22 January)

Event Time Altitude Azimuth Distance (km) Brightness Sun altitude
Exits shadow 09:39:38 69° 197° (SSW) 3,702 12.5 -47.4°
Drops below altitude 10° 09:56:51 10° 122° (ESE) 5,305 14.2 -44.1°
Sets 10:00:10 0° 120° (ESE) 5,975 14.7 -43.4°
